| time (UTC) | temp F | wind direction | speed MPH | gust MPH | rain 1hr in | rain 24hr in | rain mn in | humidity % | barometer mb |
| 20260504190400 | 69 | 234 | 3.0 | 13.0 | 0.00 | 0.00 | 0.00 | 38 | 1006.6 |
| 20260504190337 | 69 | 156 | 4.0 | 10.0 | 0.00 | 0.00 | 0.00 | 26 | 1008.0 |
| 20260504184900 | 69 | 261 | 7.0 | 13.0 | 0.00 | 0.00 | 0.00 | 36 | 1006.6 |
| 20260504184839 | 69 | 287 | 6.0 | 14.0 | 0.00 | 0.00 | 0.00 | 25 | 1008.2 |
| 20260504183414 | 66 | 2 | 4.0 | 15.0 | 0.00 | 0.00 | 0.00 | 25 | 1008.2 |
| 20260504183314 | 68 | 236 | 3.0 | 17.0 | 0.00 | 0.00 | 0.00 | 38 | 1006.6 |
| 20260504181853 | 66 | 244 | 6.0 | 12.0 | 0.00 | 0.00 | 0.00 | 25 | 1008.2 |
| 20260504181833 | 68 | 272 | 5.0 | 12.0 | 0.00 | 0.00 | 0.00 | 38 | 1006.6 |
| 20260504180358 | 66 | 257 | 3.0 | 16.0 | 0.00 | 0.00 | 0.00 | 26 | 1008.3 |
| 20260504180352 | 68 | 296 | 8.0 | 15.0 | 0.00 | 0.00 | 0.00 | 37 | 1006.7 |
| 20260504174840 | 66 | 206 | 8.0 | 19.0 | 0.00 | 0.00 | 0.00 | 25 | 1008.7 |
| 20260504174831 | 67 | 264 | 8.0 | 16.0 | 0.00 | 0.00 | 0.00 | 38 | 1006.9 |
| 20260504173348 | 66 | 224 | 9.0 | 16.0 | 0.00 | 0.00 | 0.00 | 24 | 1008.4 |
| 20260504173325 | 66 | 95 | 3.0 | 11.0 | 0.00 | 0.00 | 0.00 | 40 | 1006.9 |
| 20260504171915 | 64 | 180 | 4.0 | 13.0 | 0.00 | 0.00 | 0.00 | 26 | 1008.6 |
| 20260504171848 | 67 | 239 | 2.0 | 12.0 | 0.00 | 0.00 | 0.00 | 39 | 1006.9 |
| 20260504170402 | 65 | 278 | 5.0 | 10.0 | 0.00 | 0.00 | 0.00 | 28 | 1008.7 |
| 20260504170347 | 67 | 198 | 3.0 | 12.0 | 0.00 | 0.00 | 0.00 | 39 | 1007.1 |
| 20260504160329 | 65 | 195 | 7.0 | 16.0 | 0.00 | 0.00 | 0.00 | 24 | 1009.1 |
| 20260504160316 | 65 | 209 | 5.0 | 12.0 | 0.00 | 0.00 | 0.00 | 39 | 1007.7 |
| 20260504150411 | 63 | 212 | 7.0 | 20.0 | 0.00 | 0.00 | 0.00 | 26 | 1009.7 |
| 20260504150332 | 64 | 223 | 3.0 | 15.0 | 0.00 | 0.00 | 0.00 | 41 | 1008.0 |
| 20260504140342 | 60 | 199 | 5.0 | 14.0 | 0.00 | 0.00 | 0.00 | 30 | 1009.8 |
| 20260504140317 | 59 | 173 | 5.0 | 12.0 | 0.00 | 0.00 | 0.00 | 50 | 1008.1 |
| 20260504130418 | 54 | 105 | 2.0 | 11.0 | 0.00 | 0.00 | 0.00 | 40 | 1010.5 |
| 20260504130408 | 55 | 164 | 4.0 | 11.0 | 0.00 | 0.00 | 0.00 | 54 | 1008.9 |
| 20260504130336 | 54 | 105 | 2.0 | 11.0 | 0.00 | 0.00 | 0.00 | 40 | 1010.5 |
| 20260504110410 | 45 | 110 | 4.0 | 8.0 | 0.00 | 0.00 | 0.00 | 49 | 1011.0 |
| 20260504110334 | 47 | 156 | 3.0 | 6.0 | 0.00 | 0.00 | 0.00 | 68 | 1009.6 |
| 20260504100337 | 42 | 266 | 0.0 | 1.0 | 0.00 | 0.00 | 0.00 | 78 | 1009.3 |
| 20260504100327 | 44 | 95 | 2.0 | 3.0 | 0.00 | 0.00 | 0.00 | 51 | 1010.7 |
| 20260504081841 | 45 | 207 | 0.0 | 1.0 | 0.00 | 0.00 | 0.00 | 71 | 1009.4 |
| 20260504081832 | 46 | 97 | 3.0 | 8.0 | 0.00 | 0.00 | 0.00 | 47 | 1010.8 |
| 20260504080353 | 46 | 120 | 2.0 | 5.0 | 0.00 | 0.00 | 0.00 | 48 | 1010.7 |
| 20260504080345 | 46 | 156 | 6.0 | 8.0 | 0.00 | 0.00 | 0.00 | 69 | 1009.2 |
| 20260504070401 | 45 | 212 | 0.0 | 1.0 | 0.00 | 0.00 | 0.00 | 69 | 1009.4 |
| 20260504070359 | 46 | 158 | 1.0 | 6.0 | 0.00 | 0.00 | 0.00 | 46 | 1010.6 |
| 20260504050426 | 41 | 92 | 0.0 | 0.0 | 0.00 | 0.00 | 0.00 | 55 | 1011.2 |
| 20260504050328 | 42 | 294 | 0.0 | 2.0 | 0.00 | 0.00 | 0.00 | 71 | 1009.5 |
| 20260504044829 | 41 | 280 | 0.0 | 1.0 | 0.00 | 0.00 | 0.00 | 69 | 1009.5 |
| 20260504044826 | 41 | 92 | 0.0 | 0.0 | 0.00 | 0.00 | 0.00 | 53 | 1011.1 |
| 20260504043336 | 40 | 92 | 1.0 | 3.0 | 0.00 | 0.00 | 0.00 | 51 | 1011.2 |
| 20260504043329 | 41 | 280 | 0.0 | 2.0 | 0.00 | 0.00 | 0.00 | 72 | 1009.4 |
| 20260504041931 | 40 | 92 | 0.0 | 3.0 | 0.00 | 0.00 | 0.00 | 54 | 1011.2 |
| 20260504041907 | 39 | 166 | 1.0 | 3.0 | 0.00 | 0.00 | 0.00 | 70 | 1009.5 |
| 20260504040343 | 41 | 114 | 2.0 | 4.0 | 0.00 | 0.00 | 0.00 | 56 | 1010.8 |
| 20260504040327 | 38 | 306 | 0.0 | 1.0 | 0.00 | 0.00 | 0.00 | 77 | 1009.4 |
| 20260504034845 | 42 | 25 | 2.0 | 3.0 | 0.00 | 0.00 | 0.00 | 54 | 1010.9 |
| 20260504034813 | 36 | 306 | 1.0 | 2.0 | 0.00 | 0.00 | 0.00 | 78 | 1009.5 |
| 20260504033407 | 36 | 306 | 0.0 | 1.0 | 0.00 | 0.00 | 0.00 | 79 | 1009.4 |
| 20260504033336 | 44 | 78 | 3.0 | 4.0 | 0.00 | 0.00 | 0.00 | 41 | 1010.7 |
| 20260504031901 | 45 | 116 | 1.0 | 3.0 | 0.00 | 0.00 | 0.00 | 38 | 1010.8 |
| 20260504031831 | 36 | 306 | 0.0 | 0.0 | 0.00 | 0.00 | 0.00 | 82 | 1009.2 |
| 20260504030329 | 35 | 306 | 0.0 | 0.0 | 0.00 | 0.00 | 0.00 | 83 | 1009.2 |
| 20260504030326 | 44 | 116 | 0.0 | 2.0 | 0.00 | 0.00 | 0.00 | 38 | 1010.9 |
| 20260504024858 | 35 | 306 | 0.0 | 2.0 | 0.00 | 0.00 | 0.00 | 84 | 1009.2 |
| 20260504024848 | 44 | 116 | 1.0 | 2.0 | 0.00 | 0.00 | 0.00 | 39 | 1011.0 |
| 20260504023409 | 43 | 125 | 1.0 | 3.0 | 0.00 | 0.00 | 0.00 | 41 | 1011.0 |
| 20260504023315 | 36 | 306 | 0.0 | 1.0 | 0.00 | 0.00 | 0.00 | 85 | 1009.2 |
| 20260504021827 | 43 | 76 | 2.0 | 3.0 | 0.00 | 0.00 | 0.00 | 43 | 1011.0 |
| 20260504021819 | 36 | 306 | 0.0 | 1.0 | 0.00 | 0.00 | 0.00 | 85 | 1009.8 |
| 20260504020413 | 37 | 306 | 0.0 | 1.0 | 0.00 | 0.00 | 0.00 | 83 | 1009.2 |
| 20260504020332 | 42 | 70 | 2.0 | 3.0 | 0.00 | 0.00 | 0.00 | 45 | 1010.8 |
| 20260504014933 | 37 | 306 | 0.0 | 0.0 | 0.00 | 0.00 | 0.00 | 82 | 1009.1 |
| 20260504014835 | 43 | 95 | 1.0 | 5.0 | 0.00 | 0.00 | 0.00 | 44 | 1010.6 |
| 20260504013401 | 43 | 87 | 3.0 | 4.0 | 0.00 | 0.00 | 0.00 | 39 | 1010.4 |
| 20260504013335 | 37 | 306 | 0.0 | 0.0 | 0.00 | 0.00 | 0.00 | 79 | 1008.9 |
| 20260504011915 | 44 | 105 | 2.0 | 3.0 | 0.00 | 0.00 | 0.00 | 38 | 1010.4 |
| 20260504011833 | 44 | 105 | 2.0 | 3.0 | 0.00 | 0.00 | 0.00 | 38 | 1010.4 |
| 20260504011818 | 38 | 306 | 0.0 | 0.0 | 0.00 | 0.00 | 0.00 | 77 | 1008.8 |
| 20260504010341 | 38 | 306 | 0.0 | 0.0 | 0.00 | 0.00 | 0.00 | 71 | 1008.6 |
| 20260504010335 | 44 | 99 | 2.0 | 3.0 | 0.00 | 0.00 | 0.00 | 39 | 1010.1 |
| 20260504004843 | 39 | 306 | 0.0 | 0.0 | 0.00 | 0.00 | 0.00 | 73 | 1008.4 |
| 20260504004841 | 44 | 87 | 3.0 | 4.0 | 0.00 | 0.00 | 0.00 | 39 | 1009.9 |
| 20260504003356 | 40 | 306 | 0.0 | 0.0 | 0.00 | 0.00 | 0.00 | 70 | 1008.2 |
| 20260504003345 | 45 | 81 | 3.0 | 4.0 | 0.00 | 0.00 | 0.00 | 40 | 1009.7 |
| 20260504001850 | 46 | 61 | 2.0 | 4.0 | 0.00 | 0.00 | 0.00 | 37 | 1009.6 |
| 20260504001818 | 41 | 306 | 0.0 | 1.0 | 0.00 | 0.00 | 0.00 | 67 | 1008.0 |
| 20260504000358 | 49 | 58 | 2.0 | 3.0 | 0.00 | 0.00 | 0.00 | 33 | 1009.4 |
| 20260504000346 | 43 | 306 | 0.0 | 2.0 | 0.00 | 0.00 | 0.00 | 64 | 1007.9 |
| 20260503234830 | 51 | 289 | 0.0 | 2.0 | 0.00 | 0.00 | 0.00 | 28 | 1009.3 |
| 20260503234828 | 45 | 306 | 1.0 | 2.0 | 0.00 | 0.00 | 0.00 | 60 | 1007.8 |
| 20260503233348 | 51 | 263 | 1.0 | 4.0 | 0.00 | 0.00 | 0.00 | 27 | 1009.2 |
| 20260503233339 | 48 | 306 | 0.0 | 2.0 | 0.00 | 0.00 | 0.00 | 59 | 1007.7 |
| 20260503231921 | 51 | 308 | 3.0 | 7.0 | 0.00 | 0.00 | 0.00 | 28 | 1009.1 |
| 20260503231842 | 50 | 351 | 0.0 | 2.0 | 0.00 | 0.00 | 0.00 | 50 | 1007.6 |
| 20260503230456 | 51 | 353 | 1.0 | 11.0 | 0.00 | 0.00 | 0.00 | 29 | 1009.1 |
| 20260503230413 | 51 | 353 | 1.0 | 11.0 | 0.00 | 0.00 | 0.00 | 29 | 1009.1 |
| 20260503230343 | 50 | 341 | 1.0 | 6.0 | 0.00 | 0.00 | 0.00 | 45 | 1007.5 |
| 20260503224842 | 50 | 335 | 2.0 | 8.0 | 0.00 | 0.00 | 0.00 | 44 | 1007.6 |
| 20260503224828 | 52 | 328 | 6.0 | 12.0 | 0.00 | 0.00 | 0.00 | 26 | 1009.2 |
| 20260503223412 | 50 | 22 | 3.0 | 5.0 | 0.00 | 0.00 | 0.00 | 45 | 1007.5 |
| 20260503223400 | 51 | 280 | 4.0 | 17.0 | 0.00 | 0.00 | 0.00 | 26 | 1009.1 |
| 20260503221845 | 52 | 291 | 9.0 | 14.0 | 0.00 | 0.00 | 0.00 | 25 | 1009.1 |
| 20260503221810 | 50 | 311 | 4.0 | 8.0 | 0.00 | 0.00 | 0.00 | 44 | 1007.5 |
| 20260503220416 | 51 | 349 | 3.0 | 9.0 | 0.00 | 0.00 | 0.00 | 43 | 1007.4 |
| 20260503220403 | 51 | 306 | 4.0 | 10.0 | 0.00 | 0.00 | 0.00 | 30 | 1009.0 |
| 20260503214858 | 51 | 295 | 7.0 | 16.0 | 0.00 | 0.00 | 0.00 | 27 | 1009.1 |
| 20260503214838 | 50 | 275 | 2.0 | 4.0 | 0.00 | 0.00 | 0.00 | 46 | 1007.6 |
| 20260503213421 | 51 | 212 | 4.0 | 13.0 | 0.00 | 0.00 | 0.00 | 28 | 1008.9 |
| 20260503213349 | 50 | 5 | 2.0 | 6.0 | 0.00 | 0.00 | 0.00 | 44 | 1007.4 |
| 20260503211907 | 51 | 300 | 6.0 | 19.0 | 0.00 | 0.00 | 0.00 | 31 | 1008.9 |
| 20260503211821 | 51 | 317 | 4.0 | 9.0 | 0.00 | 0.00 | 0.00 | 43 | 1007.3 |
| 20260503210350 | 50 | 268 | 7.0 | 16.0 | 0.00 | 0.00 | 0.00 | 28 | 1008.7 |
| 20260503210329 | 51 | 30 | 3.0 | 10.0 | 0.00 | 0.00 | 0.00 | 44 | 1007.1 |
| 20260503204851 | 51 | 215 | 8.0 | 16.0 | 0.00 | 0.00 | 0.00 | 27 | 1008.7 |
| 20260503204828 | 51 | 308 | 2.0 | 10.0 | 0.00 | 0.00 | 0.00 | 44 | 1007.0 |
| 20260503203427 | 51 | 357 | 5.0 | 15.0 | 0.00 | 0.00 | 0.00 | 31 | 1008.5 |
| 20260503203401 | 50 | 318 | 3.0 | 10.0 | 0.00 | 0.00 | 0.00 | 44 | 1007.1 |
| 20260503201950 | 49 | 325 | 8.0 | 19.0 | 0.00 | 0.00 | 0.00 | 30 | 1008.8 |
| 20260503201847 | 49 | 325 | 8.0 | 19.0 | 0.00 | 0.00 | 0.00 | 30 | 1008.8 |
| 20260503201837 | 49 | 327 | 3.0 | 11.0 | 0.00 | 0.00 | 0.00 | 45 | 1007.2 |
| 20260503200436 | 51 | 232 | 8.0 | 16.0 | 0.00 | 0.00 | 0.00 | 28 | 1008.8 |
| 20260503200340 | 50 | 344 | 4.0 | 14.0 | 0.00 | 0.00 | 0.00 | 46 | 1007.2 |
| 20260503194850 | 50 | 302 | 2.0 | 9.0 | 0.00 | 0.00 | 0.00 | 46 | 1007.3 |
| 20260503194832 | 49 | 345 | 8.0 | 16.0 | 0.00 | 0.00 | 0.00 | 31 | 1009.0 |
| 20260503193357 | 50 | 25 | 3.0 | 10.0 | 0.00 | 0.00 | 0.00 | 46 | 1007.2 |
| 20260503193345 | 49 | 318 | 7.0 | 18.0 | 0.00 | 0.00 | 0.00 | 30 | 1009.0 |
| 20260503191845 | 49 | 258 | 12.0 | 22.0 | 0.00 | 0.00 | 0.00 | 29 | 1008.8 |
| 20260503191841 | 49 | 286 | 3.0 | 13.0 | 0.00 | 0.00 | 0.00 | 46 | 1007.2 |